This demonstration page uses our WeatherBlox Daily Observations layout. Learn more.

Left ArrowRight Arrow

Hourly Observations for April 19, 2017

Temp ( °F °C ) Dew Point ( °F °C ) Humidity (%) Winds ( mph kmh ) Pressure ( in mb ) Visibility ( mi km ) Precip ( " mm )
12:59 am 00:59 Mostly Cloudy 54 12.2 50 10 87 87 E 9 15 30.41 1030 10 16 0.00 0.00
1:59 am 01:59 Mostly Cloudy 54 12.2 50 10 87 87 E 10 17 30.39 1029 10 16 0.00 0.00
2:59 am 02:59 Mostly Cloudy 55 12.8 49 9.4 80 80 E 10 17 30.38 1029 10 16 0.00 0.00
3:59 am 03:59 Mostly Cloudy 54 12.2 50 10 87 87 E 8 13 30.39 1029 10 16 0.00 0.00
4:59 am 04:59 Mostly Cloudy 55 12.8 50 10 83 83 E 9 15 30.39 1029 10 16 0.00 0.00
5:59 am 05:59 Mostly Cloudy 55 12.8 50 10 83 83 E 10 17 30.40 1029 10 16 0.00 0.00
6:59 am 06:59 Mostly Cloudy 55 12.8 50 10 83 83 E 14 22 30.40 1030 8 13 0.00 0.00
7:59 am 07:59 Cloudy with Light Rain 56 13.3 51 10.6 84 84 E 12 19 30.43 1030 7 11 0.00 0.03
8:59 am 08:59 Cloudy 57 13.9 52 11.1 83 83 E 13 20 30.42 1030 8 13 0.01 0.25
9:59 am 09:59 Cloudy with Light Rain 57 13.9 51 10.6 81 81 E 12 19 30.42 1030 8 13 0.00 0.03
10:59 am 10:59 Cloudy 60 15.6 52 11.1 75 75 E 8 13 30.42 1030 9 14 0.00 0.03
11:59 am 11:59 Cloudy 61 16.1 52 11.1 72 72 undefined N/A 30.40 1030 8 13 0.00 0.00
12:59 pm 12:59 Mostly Cloudy 60 15.6 52 11.1 75 75 E 9 15 30.38 1029 8 13 0.00 0.00
1:59 pm 13:59 Mostly Cloudy 63 17.2 54 12.2 73 73 ENE 7 11 30.35 1028 8 13 0.00 0.00
2:59 pm 14:59 Mostly Cloudy 69 20.6 52 11.1 55 55 SSE 7 11 30.32 1027 10 16 0.00 0.00
3:59 pm 15:59 Partly Cloudy 71 21.7 51 10.6 49 49 SE 9 15 30.30 1026 10 16 0.00 0.00
4:59 pm 16:59 Mostly Cloudy 67 19.4 54 12.2 63 63 ENE 9 15 30.30 1026 9 14 0.00 0.00
5:59 pm 17:59 Mostly Cloudy 68 20 52 11.1 57 57 E 8 13 30.29 1026 10 16 0.00 0.00
6:59 pm 18:59 Mostly Cloudy 67 19.4 52 11.1 59 59 ESE 7 11 30.29 1026 10 16 0.00 0.00
7:59 pm 19:59 Mostly Cloudy 65 18.3 52 11.1 63 63 ESE 5 7 30.28 1026 10 16 0.00 0.00
8:59 pm 20:59 Mostly Cloudy 65 18.3 52 11.1 63 63 SSE 6 9 30.28 1026 10 16 0.00 0.00
9:59 pm 21:59 Mostly Cloudy 64 17.8 53 11.7 68 68 S 9 15 30.27 1025 10 16 0.00 0.00
10:59 pm 22:59 Mostly Cloudy 64 17.8 55 12.8 73 73 S 9 15 30.24 1024 10 16 0.00 0.00
11:59 pm 23:59 Mostly Cloudy 65 18.3 56 13.3 73 73 SSW 10 17 30.24 1024 10 16 0.00 0.00

Powered by AerisWeather